Location: Hurecourt
(47.9030°N, 6.0653°E)
Time: 04:31:01
(UTC+00:00)

SL-24 DEB - Pass Details

Date: 14 July 2020
Orbit: 667 x 698 km, 92.0° (Epoch: 06 August)

Event Time Altitude Azimuth Distance (km) Brightness Sun altitude
Rises 00:54:26 0° 2° (N) 3,065 9.1 -18.6°
Reaches altitude 10° 00:56:42 10° 1° (N) 2,149 7.9 -18.5°
Maximum altitude 01:01:25 71° 278° (W) 735 4.3 -18.2°
Enters shadow 01:03:20 36° 203° (SSW) 1,103 4.8 -18.1°
